| time (UTC) | temp F | wind direction | speed MPH | gust MPH | rain 1hr in | rain 24hr in | rain mn in | humidity % | barometer mb |
| 20260505070018 | 53 | 199 | 0.0 | 0.0 | 0.00 | 0.02 | 0.00 | 95 | 1012.4 |
| 20260505064519 | 53 | 199 | 0.0 | 0.0 | 0.00 | 0.03 | 0.02 | 95 | 1012.4 |
| 20260505063020 | 53 | 199 | 0.0 | 1.0 | 0.00 | 0.03 | 0.02 | 95 | 1012.3 |
| 20260505061520 | 53 | 199 | 0.0 | 0.0 | 0.00 | 0.03 | 0.02 | 94 | 1012.4 |
| 20260505060016 | 53 | 199 | 0.0 | 0.0 | 0.00 | 0.03 | 0.02 | 94 | 1012.4 |
| 20260505054515 | 53 | 199 | 0.0 | 0.0 | 0.00 | 0.03 | 0.02 | 94 | 1012.4 |
| 20260505053019 | 53 | 199 | 0.0 | 0.0 | 0.00 | 0.03 | 0.02 | 94 | 1012.5 |
| 20260505051518 | 53 | 199 | 0.0 | 0.0 | 0.00 | 0.03 | 0.02 | 94 | 1012.4 |
| 20260505041513 | 54 | 199 | 0.0 | 1.0 | 0.00 | 0.03 | 0.02 | 94 | 1012.3 |
| 20260505040013 | 54 | 199 | 0.0 | 1.0 | 0.00 | 0.03 | 0.02 | 93 | 1012.0 |
| 20260505034512 | 54 | 199 | 0.0 | 0.0 | 0.00 | 0.03 | 0.02 | 93 | 1011.8 |
| 20260505033112 | 54 | 199 | 0.0 | 1.0 | 0.00 | 0.03 | 0.02 | 93 | 1011.6 |
| 20260505031515 | 54 | 199 | 0.0 | 0.0 | 0.00 | 0.03 | 0.02 | 93 | 1011.4 |
| 20260505030010 | 55 | 199 | 0.0 | 1.0 | 0.00 | 0.03 | 0.02 | 93 | 1011.3 |
| 20260505024511 | 55 | 199 | 0.0 | 0.0 | 0.00 | 0.05 | 0.02 | 92 | 1011.3 |
| 20260505023010 | 55 | 199 | 0.0 | 0.0 | 0.00 | 0.05 | 0.02 | 92 | 1011.3 |
| 20260505021508 | 55 | 199 | 0.0 | 1.0 | 0.00 | 0.05 | 0.02 | 92 | 1011.3 |
| 20260505020012 | 55 | 199 | 0.0 | 2.0 | 0.00 | 0.05 | 0.02 | 92 | 1011.4 |
| 20260505014509 | 55 | 199 | 0.0 | 2.0 | 0.00 | 0.17 | 0.02 | 91 | 1011.7 |
| 20260505013008 | 55 | 199 | 1.0 | 3.0 | 0.00 | 0.17 | 0.02 | 91 | 1011.8 |
| 20260505011507 | 55 | 199 | 1.0 | 4.0 | 0.00 | 0.17 | 0.02 | 90 | 1011.9 |
| 20260505010014 | 56 | 219 | 1.0 | 4.0 | 0.00 | 0.17 | 0.02 | 90 | 1011.8 |
| 20260505004507 | 57 | 187 | 1.0 | 4.0 | 0.00 | 0.17 | 0.02 | 89 | 1011.8 |
| 20260505003005 | 58 | 207 | 0.0 | 2.0 | 0.00 | 0.17 | 0.02 | 89 | 1011.7 |
| 20260505001508 | 58 | 208 | 0.0 | 3.0 | 0.00 | 0.17 | 0.02 | 89 | 1011.7 |
| 20260505000004 | 58 | 212 | 1.0 | 3.0 | 0.00 | 0.17 | 0.02 | 87 | 1011.6 |
| 20260504234504 | 58 | 170 | 1.0 | 3.0 | 0.00 | 0.17 | 0.02 | 87 | 1011.8 |
| 20260504233003 | 58 | 212 | 1.0 | 3.0 | 0.00 | 0.17 | 0.02 | 86 | 1011.7 |
| 20260504231504 | 58 | 207 | 3.0 | 5.0 | 0.00 | 0.17 | 0.02 | 84 | 1011.7 |
| 20260504230002 | 58 | 207 | 1.0 | 4.0 | 0.00 | 0.17 | 0.02 | 86 | 1011.8 |
| 20260504224505 | 58 | 223 | 2.0 | 4.0 | 0.00 | 0.17 | 0.02 | 85 | 1012.0 |
| 20260504223100 | 57 | 213 | 2.0 | 3.0 | 0.00 | 0.17 | 0.02 | 86 | 1012.1 |
| 20260504221559 | 58 | 210 | 2.0 | 4.0 | 0.00 | 0.17 | 0.02 | 87 | 1012.2 |
| 20260504214607 | 58 | 220 | 2.0 | 5.0 | 0.00 | 0.17 | 0.02 | 86 | 1012.3 |
| 20260504213058 | 58 | 236 | 1.0 | 5.0 | 0.00 | 0.17 | 0.02 | 87 | 1012.3 |
| 20260504211557 | 58 | 217 | 1.0 | 5.0 | 0.00 | 0.17 | 0.02 | 88 | 1012.4 |
| 20260504210059 | 57 | 218 | 2.0 | 6.0 | 0.00 | 0.17 | 0.02 | 88 | 1012.6 |
| 20260504204557 | 57 | 222 | 2.0 | 6.0 | 0.00 | 0.17 | 0.02 | 91 | 1012.7 |
| 20260504203057 | 57 | 215 | 2.0 | 6.0 | 0.00 | 0.17 | 0.02 | 92 | 1012.6 |
| 20260504201551 | 56 | 225 | 2.0 | 4.0 | 0.00 | 0.17 | 0.02 | 92 | 1012.7 |
| 20260504200057 | 56 | 217 | 0.0 | 3.0 | 0.00 | 0.17 | 0.02 | 93 | 1012.8 |
| 20260504194600 | 56 | 222 | 2.0 | 7.0 | 0.00 | 0.17 | 0.02 | 93 | 1012.7 |
| 20260504193050 | 57 | 215 | 2.0 | 5.0 | 0.00 | 0.17 | 0.02 | 95 | 1012.6 |
| 20260504191606 | 57 | 217 | 1.0 | 3.0 | 0.00 | 0.17 | 0.02 | 96 | 1012.7 |
| 20260504190049 | 56 | 213 | 1.0 | 3.0 | 0.00 | 0.17 | 0.02 | 96 | 1012.7 |
| 20260504184545 | 56 | 220 | 1.0 | 4.0 | 0.01 | 0.17 | 0.02 | 96 | 1012.7 |
| 20260504183042 | 56 | 219 | 2.0 | 4.0 | 0.01 | 0.17 | 0.02 | 97 | 1012.8 |
| 20260504181541 | 55 | 219 | 1.0 | 5.0 | 0.01 | 0.17 | 0.02 | 97 | 1012.8 |
| 20260504180039 | 55 | 210 | 2.0 | 4.0 | 0.01 | 0.17 | 0.02 | 96 | 1012.6 |
| 20260504174539 | 55 | 177 | 2.0 | 5.0 | 0.00 | 0.16 | 0.01 | 97 | 1012.6 |
| 20260504173037 | 56 | 211 | 1.0 | 5.0 | 0.00 | 0.16 | 0.01 | 97 | 1012.4 |
| 20260504171545 | 55 | 180 | 0.0 | 1.0 | 0.00 | 0.16 | 0.01 | 97 | 1012.3 |
| 20260504100103 | 51 | 155 | 0.0 | 0.0 | 0.00 | 0.16 | 0.01 | 96 | 1011.0 |
| 20260504090106 | 51 | 155 | 0.0 | 0.0 | 0.00 | 0.16 | 0.01 | 96 | 1011.1 |
| 20260504081550 | 53 | 155 | 0.0 | 1.0 | 0.01 | 0.16 | 0.01 | 96 | 1012.1 |